Time,TemperatureF,DewpointF,PressureIn,WindDirection,WindDirectionDegrees,WindSpeedMPH,WindSpeedGustMPH,Humidity,HourlyPrecipIn,Conditions,Clouds,dailyrainin,SoftwareType,DateUTC
2013-08-09 00:33:00,62.0,40.0,29.79,SW,230,1.0,-999.0,44,0.00,,,-99.99,,2013-08-09 07:33:00,
2013-08-09 00:43:00,62.0,40.0,29.79,SW,230,1.0,-999.0,44,0.00,,,-99.99,,2013-08-09 07:43:00,
2013-08-09 00:50:00,62.0,39.0,29.78,SSE,160,2.0,-999.0,42,0.00,,,-99.99,,2013-08-09 07:50:00,
2013-08-09 01:43:00,62.0,39.0,29.78,SSE,160,2.0,-999.0,42,0.00,,,-99.99,,2013-08-09 08:43:00,
2013-08-09 02:32:00,60.0,37.0,29.77,North,0,0.0,-999.0,43,0.00,,,-99.99,,2013-08-09 09:32:00,
2013-08-09 02:51:00,60.0,35.0,29.76,NNE,30,1.0,-999.0,39,0.00,,,-99.99,,2013-08-09 09:51:00,
2013-08-09 03:32:00,60.0,35.0,29.76,NNE,30,1.0,-999.0,39,0.00,,,-99.99,,2013-08-09 10:32:00,
2013-08-09 03:43:00,60.0,35.0,29.76,NNE,30,1.0,-999.0,39,0.00,,,-99.99,,2013-08-09 10:43:00,
2013-08-09 03:51:00,59.0,35.0,29.75,North,0,0.0,-999.0,40,0.00,,,-99.99,,2013-08-09 10:51:00,
2013-08-09 04:42:00,59.0,35.0,29.75,North,0,0.0,-999.0,40,0.00,,,-99.99,,2013-08-09 11:42:00,
2013-08-09 04:51:00,58.0,36.0,29.76,North,0,0.0,-999.0,44,0.00,,,-99.99,,2013-08-09 11:51:00,
2013-08-09 05:43:00,58.0,36.0,29.76,North,0,0.0,-999.0,44,0.00,,,-99.99,,2013-08-09 12:43:00,
2013-08-09 05:51:00,57.0,27.0,29.76,North,0,0.0,-999.0,32,0.00,,,-99.99,,2013-08-09 12:51:00,
2013-08-09 06:32:00,57.0,27.0,29.76,North,0,0.0,-999.0,32,0.00,,,-99.99,,2013-08-09 13:32:00,
2013-08-09 06:43:00,57.0,27.0,29.76,North,0,0.0,-999.0,32,0.00,,,-99.99,,2013-08-09 13:43:00,
2013-08-09 06:51:00,58.0,23.0,29.78,North,0,0.0,-999.0,26,0.00,,,-99.99,,2013-08-09 13:51:00,
2013-08-09 07:43:00,58.0,23.0,29.78,North,0,0.0,-999.0,26,0.00,,,-99.99,,2013-08-09 14:43:00,
2013-08-09 07:51:00,64.0,21.0,29.80,North,0,0.0,-999.0,19,0.00,,,-99.99,,2013-08-09 14:51:00,
2013-08-09 08:44:00,64.0,21.0,29.80,North,0,0.0,-999.0,19,0.00,,,-99.99,,2013-08-09 15:44:00,
2013-08-09 08:51:00,68.0,17.0,29.81,South,180,3.0,-999.0,14,0.00,,,-99.99,,2013-08-09 15:51:00,
2013-08-09 09:43:00,68.0,17.0,29.81,South,180,3.0,-999.0,14,0.00,,,-99.99,,2013-08-09 16:43:00,
2013-08-09 09:51:00,68.0,23.0,29.82,SSE,160,1.0,-999.0,18,0.00,,,-99.99,,2013-08-09 16:51:00,
2013-08-09 10:33:00,68.0,23.0,29.82,SSE,160,1.0,-999.0,18,0.00,,,-99.99,,2013-08-09 17:33:00,
2013-08-09 10:43:00,68.0,23.0,29.82,SSE,160,1.0,-999.0,18,0.00,,,-99.99,,2013-08-09 17:43:00,
2013-08-09 10:51:00,72.0,26.0,29.82,SW,230,1.0,-999.0,18,0.00,,,-99.99,,2013-08-09 17:51:00,
2013-08-09 11:32:00,72.0,26.0,29.82,SW,230,1.0,-999.0,18,0.00,,,-99.99,,2013-08-09 18:32:00,
2013-08-09 11:43:00,72.0,26.0,29.82,SW,230,1.0,-999.0,18,0.00,,,-99.99,,2013-08-09 18:43:00,
2013-08-09 11:51:00,71.0,35.0,29.82,South,170,5.0,-999.0,27,0.00,,,-99.99,,2013-08-09 18:51:00,
2013-08-09 12:32:00,71.0,35.0,29.82,South,170,5.0,-999.0,27,0.00,,,-99.99,,2013-08-09 19:32:00,
2013-08-09 12:43:00,71.0,35.0,29.82,South,170,5.0,-999.0,27,0.00,,,-99.99,,2013-08-09 19:43:00,
2013-08-09 12:52:00,72.0,35.0,29.83,North,0,0.0,-999.0,26,0.00,,,-99.99,,2013-08-09 19:52:00,
2013-08-09 13:32:00,72.0,35.0,29.83,North,0,0.0,-999.0,26,0.00,,,-99.99,,2013-08-09 20:32:00,
2013-08-09 13:43:00,72.0,35.0,29.83,North,0,0.0,-999.0,26,0.00,,,-99.99,,2013-08-09 20:43:00,
2013-08-09 13:52:00,74.0,35.0,29.83,ESE,110,4.0,-999.0,24,0.00,,,-99.99,,2013-08-09 20:52:00,
2013-08-09 14:33:00,74.0,35.0,29.83,ESE,110,4.0,-999.0,24,0.00,,,-99.99,,2013-08-09 21:33:00,
2013-08-09 14:43:00,74.0,35.0,29.83,ESE,110,4.0,-999.0,24,0.00,,,-99.99,,2013-08-09 21:43:00,
2013-08-09 14:52:00,74.0,34.0,29.82,SE,140,4.0,-999.0,23,0.00,,,-99.99,,2013-08-09 21:52:00,
2013-08-09 15:32:00,74.0,34.0,29.82,SE,140,4.0,-999.0,23,0.00,,,-99.99,,2013-08-09 22:32:00,
2013-08-09 15:42:00,74.0,34.0,29.82,SE,140,4.0,-999.0,23,0.00,,,-99.99,,2013-08-09 22:42:00,
2013-08-09 15:52:00,72.0,37.0,29.82,ESE,110,4.0,-999.0,28,0.00,,,-99.99,,2013-08-09 22:52:00,
2013-08-09 16:43:00,72.0,37.0,29.82,ESE,110,4.0,-999.0,28,0.00,,,-99.99,,2013-08-09 23:43:00,
2013-08-09 16:52:00,70.0,40.0,29.82,North,0,0.0,-999.0,33,0.00,,,-99.99,,2013-08-09 23:52:00,
2013-08-09 17:33:00,70.0,40.0,29.82,North,0,0.0,-999.0,33,0.00,,,-99.99,,2013-08-10 00:33:00,
2013-08-09 17:43:00,70.0,40.0,29.82,North,0,0.0,-999.0,33,0.00,,,-99.99,,2013-08-10 00:43:00,
2013-08-09 17:52:00,68.0,43.0,29.81,North,0,0.0,-999.0,41,0.00,,,-99.99,,2013-08-10 00:52:00,
2013-08-09 18:32:00,68.0,43.0,29.81,North,0,0.0,-999.0,41,0.00,,,-99.99,,2013-08-10 01:32:00,
2013-08-09 18:42:00,68.0,43.0,29.81,North,0,0.0,-999.0,41,0.00,,,-99.99,,2013-08-10 01:42:00,
2013-08-09 18:52:00,65.0,47.0,29.78,East,100,5.0,-999.0,53,0.00,,,-99.99,,2013-08-10 01:52:00,
2013-08-09 19:32:00,65.0,47.0,29.78,East,100,5.0,-999.0,53,0.00,,,-99.99,,2013-08-10 02:32:00,
2013-08-09 19:42:00,65.0,47.0,29.78,East,100,5.0,-999.0,53,0.00,,,-99.99,,2013-08-10 02:42:00,
2013-08-09 20:32:00,60.0,48.0,29.79,SE,130,1.0,-999.0,65,0.00,,,-99.99,,2013-08-10 03:32:00,
2013-08-09 20:42:00,60.0,48.0,29.79,SE,130,1.0,-999.0,65,0.00,,,-99.99,,2013-08-10 03:42:00,
2013-08-09 20:51:00,60.0,48.0,29.79,SE,130,1.0,-999.0,65,0.00,,,-99.99,,2013-08-10 03:51:00,
2013-08-09 20:52:00,59.0,48.0,29.81,North,0,0.0,-999.0,68,0.00,,,-99.99,,2013-08-10 03:52:00,
2013-08-09 21:32:00,59.0,48.0,29.81,North,0,0.0,-999.0,68,0.00,,,-99.99,,2013-08-10 04:32:00,
2013-08-09 21:43:00,59.0,48.0,29.81,North,0,0.0,-999.0,68,0.00,,,-99.99,,2013-08-10 04:43:00,
2013-08-09 21:52:00,59.0,46.0,29.83,North,0,0.0,-999.0,61,0.00,,,-99.99,,2013-08-10 04:52:00,
2013-08-09 22:42:00,59.0,46.0,29.83,North,0,0.0,-999.0,61,0.00,,,-99.99,,2013-08-10 05:42:00,
2013-08-09 22:52:00,58.0,45.0,29.82,North,0,0.0,-999.0,61,0.00,,,-99.99,,2013-08-10 05:52:00,
2013-08-09 23:44:00,58.0,45.0,29.82,North,0,0.0,-999.0,61,0.00,,,-99.99,,2013-08-10 06:44:00,